Weather in Kizilot

Turkey     36°43′07″N   31°34′07″E
temp.,
°C
wind,
m/s
gust,
m/s
humid.,
%
clouds,
%
prec.,
mm/h
press.,
hPa
HPBL,
m
14 may, fri
fri1400:00+18nne007221 0.0 1013140
03:00+18ne11712 0.0 101395
06:00+17ne11634 0.0 101360
09:00+21sse01478 0.0 1014251
12:00+23sse55540 0.0 1015587
15:00+23s43540 0.0 1014593
18:00+23sw32570 0.0 1014526
21:00+19wnw22730 0.0 1013143
15 may, sat
sat1500:00+18wnw12750 0.0 1013144
03:00+18ne11750 0.0 101273
06:00+17e11750 0.0 101273
09:00+21s11605 0.0 1012308
12:00+23s435810 0.0 1012506
15:00+24ssw43575 0.0 1011550
18:00+23s33580 0.0 1010430
21:00+20sse23760 0.0 1010247
16 may, sun
sun1600:00+19se457419 0.0 1009306
03:00+19ese4572100 0.0 1007401
06:00+19e577186 0.0 1008459
09:00+22se8866100 0.0 1008950
12:00+23sse886397 0.0 10081025
15:00+23sse77620 0.0 10081065
18:00+22sse55660 0.0 1007882
21:00+19se017467 0.0 1008421
17 may, mon
mon1700:00+18e11770 0.1 100789
03:00+17n11790 0.1 100773
06:00+17ne11680 0.0 100778
09:00+21sw11590 0.0 1009355
12:00+23ssw32540 0.0 1010586
15:00+23s43520 0.0 1010550
18:00+23ssw33640 0.0 1010570
21:00+20e23770 0.0 1011145
18 may, tue
tue1800:00+19ne11760 0.0 101162
03:00+18e11730 0.0 101173
06:00+19n11590 0.0 101150
09:00+23w11500 0.0 1012206
12:00+25ssw32500 0.0 1012369
15:00+25s32530 0.0 1012415
18:00+24sw22593 0.0 1011312
21:00+21se11785 0.0 101211